Flag Weather past 2 weeks in Gotha, Thuringia, Germany

Now
44 °F

Light rain. Overcast.


Feels Like: 41 °F
Forecast: 32 / 43 °F
Wind: 6 mph from Northwest

Location: Erfurt-Bindersleben

Current Time: Nov 24, 2014 at 9:43:07 AM

Latest Report: Nov 24, 2014 at 9:00 AM


Visibility: 9 mi

Pressure: 30.19 "Hg

Humidity: 90%

Dew point: 41 °F

Location of GothaLocation

Historic Weather in Gotha — Graph

°F

Gotha temperature yesterday

Maximum temperature yesterday: 49 °F (at 10:00 PM)
Minimum temperature yesterday: 31 °F (at 5:00 AM)
Average temperature yesterday: 40 °F

Past Weeks' High & Low Weather Summary

 TemperatureHumidityPressure
High53 °F (Nov 14, 3:00 PM)100% (Nov 10, 1:00 AM)30.37 "Hg (Nov 10, 1:00 AM)
Low31 °F (Nov 23, 5:00 AM)74% (Nov 23, 10:00 PM)29.53 "Hg (Nov 16, 1:00 PM)
Average43 °F95%29.95 "Hg
* Reported Nov 9 8:00 AM — Nov 24 8:00 AM, Gotha, Weather by CustomWeather, © 2014

Note: Actual official high and low records may vary slightly from our data, if they occured in-between our weather recording intervals... More about our weather records

Advertising

Gotha weather history for previous 24 hours

 ConditionsComfort  
Time TempWeatherWind HumidityBarometerVisibility
8:00 AM
Nov 24
43 °FOvercast.6 mph89%30.16 "Hg19 mi
7:00 AM44 °FOvercast.5 mph87%30.12 "Hg25 mi
6:00 AM45 °FOvercast.2 mph83%30.08 "Hg28 mi
5:00 AM46 °FOvercast.3 mph82%30.07 "Hg25 mi
4:00 AM47 °FOvercast.5 mph80%30.06 "Hg25 mi
3:00 AM47 °FOvercast.3 mph80%30.08 "Hg28 mi
2:00 AM46 °FOvercast.3 mph81%30.10 "Hg31 mi
1:00 AM47 °FOvercast.5 mph79%30.08 "Hg31 mi
12:00 AM47 °FOvercast.6 mph77%30.09 "Hg31 mi
11:00 PM
Nov 23
48 °FPassing clouds.6 mph76%30.10 "Hg37 mi
10:00 PM49 °FPassing clouds.6 mph74%30.10 "Hg31 mi
9:00 PM48 °FPassing clouds.6 mph79%30.10 "Hg31 mi
8:00 PM47 °FPassing clouds.3 mph79%30.12 "Hg47 mi
7:00 PM47 °FPassing clouds.5 mph81%30.11 "Hg47 mi
6:00 PM47 °FPassing clouds.5 mph82%30.14 "Hg47 mi
5:00 PM48 °FPassing clouds.3 mph82%30.14 "Hg37 mi
4:00 PM42 °FPartly sunny.2 mph90%30.17 "Hg12 mi
3:00 PM44 °FScattered clouds.3 mph87%30.19 "Hg11 mi
2:00 PM43 °FPassing clouds.2 mph89%30.18 "Hg11 mi
1:00 PM42 °FFog.2 mph92%30.21 "Hg6 mi
12:00 PM41 °FFog.2 mph93%30.23 "Hg2 mi
11:00 AM42 °FFog.2 mph92%30.23 "Hg2 mi
10:00 AM41 °FFog.1 mph93%30.24 "Hg2 mi
9:00 AM36 °FFog.2 mph97%30.25 "Hg2 mi
Weather by CustomWeather, © 2014

See weather overviewHow to use our weather pages